Home   Weather   Herat   Past weeks

Flag for Afghanistan Past Weather in Herat, Afghanistan — Yesterday and Last 2 Weeks

Now
86 °F

Clear.


Feels Like: 83 °F
Forecast: 75 / 98 °F
Wind: 17 mph from Northeast

Location: Herat Airport

Current Time: Jul 23, 2017 at 1:22:53 am

Latest Report: Jul 22, 2017 at 9:25 pm


Visibility: 10 mi

Pressure: 29.83 "Hg (26.84 "Hg at 937m altitude)

Humidity: 25%

Dew Point: 46 °F

Location of HeratLocation

Past Weather in Herat — Graph

°F

Herat Temperature Yesterday

Maximum temperature yesterday: 99 °F (at 2:25 pm)
Minimum temperature yesterday: 73 °F (at 5:55 am)
Average temperature yesterday: 89 °F

High & Low Weather Summary for the Past Weeks

 TemperatureHumidityPressure
High106 °F (Jul 8, 3:25 pm)65% (Jul 12, 6:25 am)29.92 "Hg (Jul 12, 6:25 am)
Low72 °F (Jul 15, 6:25 am)16% (Jul 11, 10:25 am)29.68 "Hg (Jul 20, 3:25 pm)
Average88 °F29%29.81 "Hg
* Reported Jul 7 9:25 pm — Jul 22 9:25 pm, Herat. Weather by CustomWeather, © 2017

Note: Actual official high and low records may vary slightly from our data, if they occured in-between our weather recording intervals... More about our weather records

Advertising

Herat Weather History for the Previous 24 Hours

Scroll right to see more
 ConditionsComfort  
Time TempWeatherWind HumidityBarometerVisibility
9:25 pm
Sat, Jul 22
86 °FClear.17 mph25%29.83 "Hg10 mi
8:25 pm88 °FClear.23 mph24%29.80 "Hg10 mi
7:25 pm90 °FSunny.21 mph22%29.77 "Hg10 mi
6:25 pm93 °FSunny.25 mph21%29.77 "Hg10 mi
5:25 pm95 °FSunny.28 mph20%29.74 "Hg10 mi
4:25 pm97 °FSunny.31 mph19%29.77 "Hg10 mi
3:25 pm97 °FSunny.32 mph19%29.77 "Hg10 mi
2:25 pm99 °FSunny.31 mph19%29.77 "Hg10 mi
1:25 pm97 °FSunny.25 mph19%29.77 "Hg10 mi
12:25 pm95 °FSunny.29 mph22%29.77 "Hg10 mi
11:25 am93 °FSunny.24 mph24%29.80 "Hg10 mi
10:25 am93 °FSunny.18 mph26%29.80 "Hg10 mi
9:25 am91 °FSunny.15 mph28%29.83 "Hg10 mi
8:25 am86 °FSunny.10 mph29%29.83 "Hg10 mi
7:25 am82 °FSunny.9 mph32%29.83 "Hg10 mi
6:25 am75 °FSunny.6 mph36%29.80 "Hg10 mi
5:55 am73 °FSunny.7 mph36%29.80 "Hg10 mi
2:25 am77 °FClear.9 mph32%29.80 "Hg10 mi
1:44 am79 °FClear.10 mph30%29.80 "Hg10 mi
Weather by CustomWeather, © 2017

See weather overviewHow to use our weather pages